STARLINK-2391, 47810

Orbit data source: Space-Track

STARLINK-2391, 47810 is a payload satellite owned by SpaceX/Seattle (US) in LEO that was launched on Thu, 11 Mar 2021 UTC via an FALCON 9 launch vehicle from the Air Force Eastern Test Range (AFETR). Payload-class satellites include a variety of spacecraft equipped with specific instruments for various scientific and technological missions. These include communications satellites like Starlink; space stations such as the ISS; scientific satellites like the Hubble; Earth observation satellites from companies like Planet Labs, Umbra, and HawkEye 360; GPS; miniature CubeSats for education and research; and military/defense satellites.

Loading next visibility...
Identifier
47810, 2021-018Z
Orbit
LEO
Country
Flag of USUS
Related business
Manufacturer
SpaceX/Seattle
Mission
Operational Commercial Communications
Bus & Motor
STARLINK, Unknown motor
Mass
260 kg wet, ~248 kg dry
Launch date (UTC)
2021-03-11 (5 years ago)
Launch vehicle
FALCON 9
Launch site
Air Force Eastern Test Range (AFETR)
Object type
Payload
Rocket body
Debris
Shape & HBR
Box + 1 Pan, 10.1 m
Radar Cross Section
13.562 m², Large (>1 m²)

Expand to show TLE details & history
Last TLE update: 12 hours ago

TLE from 12 hours ago
0 STARLINK-2391
1 47810U 21018Z   26119.98272905  .00005637  00000-0  19325-3 0  9997
2 47810  53.1629  17.2590 0000756  79.6712 280.4375 15.31702842284457
Epoch: 2026-04-29T23:35Z
TLE epoch observation values (Epoch: 2026-04-29T23:35:07.789Z)
Latitude
-0.00002°
Longitude
165.54066°
Altitude
471.538 km
Speed
7.632 km/s
True Right ascension
01h 09m 02s
True Declination
0° 00' 00"
Sunlit
Object was in daylight at epoch
Visualization orbit readout
Latitude
Unknown
Longitude
Unknown
Altitude
Unknown
Speed
Unknown
Apparent Right ascension
Unknown
Apparent Declination
Unknown
Sunlit
N/A
Visualization observer readout
Local Sidereal Time
18:59:46
Azimuth
Unknown
Elevation
Unknown
Doppler factor
Unknown
Orbital elements
Apogee altitude
471.505 km
Perigee altitude
470.47 km
Semi-major axis
6,849.125 km
Eccentricity
0.00008
Inclination
53.1629°
RAAN
17.259°
Arg. of periapsis
79.6712°
True anomaly
280.42898°
Mean anomaly
280.4375°
Eccentric anomaly
280.43324°
Mean motion
3.82905 °/min
Orbital period
94.02 mins
BSTAR
0.00019325
Loading maneuver chart data...
Computing Atmospheric mass density...
Loading historical data...
Loading historical data...
Loading historical data...
Loading historical data...
Loading historical data...
Loading historical data...
Loading historical data...

Documentation

Showing up to 5 results
|